{"data":{"norad_id":62531,"epoch":"2026-09-21T04:17:22.419744Z","epoch_age_seconds":112692,"freshness":"FRESH","line1":"1 62531U 25004W   26264.17873171  .00009720  00000+0  36219-3 0  9994","line2":"2 62531  42.9997 196.0664 0000766 339.9487  20.1334 15.27587671 96358","mean_motion":15.27587671,"eccentricity":7.66e-5,"inclination_deg":42.9997,"raan_deg":196.0664,"arg_perigee_deg":339.9487,"mean_anomaly_deg":20.1334,"bstar":0.00036219,"rev_number":9635,"period_min":94.266275339689,"perigee_km":482.50056130667,"apogee_km":483.55169149763,"semimajor_km":6861.1631264021,"source":"CELESTRAK","updated_at":"2026-09-22T09:00:49.625668Z"}}